Location: Unspecified
(0.0000°N, 0.0000°E)
Time: 01:55:04
(UTC+00:00)

Vanguard 1 Rocket - Pass Details

Date: 14 December 2017
Orbit: 656 x 4222 km, 34.3° (Epoch: 16 January)

Event Time Altitude Azimuth Distance (km) Brightness Sun altitude
Rises 19:09:44 0° 322° (NW) 5,607 11.6 -17.1°
Reaches altitude 10° 19:15:46 10° 344° (NNW) 5,315 11.2 -18.5°
Maximum altitude 19:24:51 16° 17° (NNE) 5,709 11.0 -20.6°
Enters shadow 19:29:46 15° 32° (NNE) 6,199 11.1 -21.7°
